When you browse on this site, cookies collect data to enhance your experience and personalize the content and advertising you see.
Visit our Privacy Policy to learn more. By continuing to use the site, you agree to this use of cookies and data.
  • In Hungary
  • List of Countries
  • For 7 days
  • Water Temperature
  • Satellite Maps
  • Weather Map
  • News
  • Weather Widgets
  • user-avatar
    Login

    Hourly Weather Channapatna

    Today, 17 January, Thursday

    Time Temperature Precipitation Wind Pressure Humidity
    00:00 +19°C° 0 mm 3 mps 703 mmHg 66%
    01:00 +19°C° 0 mm 3 mps 703 mmHg 71%
    02:00 +18°C° 0 mm 2 mps 702 mmHg 77%
    03:00 +18°C° 0 mm 2 mps 702 mmHg 79%
    04:00 +17°C° 0 mm 2 mps 702 mmHg 82%
    05:00 +17°C° 0 mm 2 mps 702 mmHg 88%
    06:00 +18°C° 0 mm 2 mps 703 mmHg 83%
    07:00 +19°C° 0 mm 2 mps 703 mmHg 77%
    08:00 +21°C° 0 mm 2 mps 704 mmHg 71%
    09:00 +24°C° 0 mm 3 mps 704 mmHg 59%
    10:00 +26°C° 0 mm 3 mps 704 mmHg 46%
    11:00 +30°C° 0 mm 3 mps 704 mmHg 28%
    12:00 +30°C° 0 mm 3 mps 703 mmHg 26%
    13:00 +31°C° 0 mm 3 mps 703 mmHg 24%
    14:00 +33°C° 0 mm 3 mps 702 mmHg 21%
    15:00 +31°C° 0 mm 3 mps 702 mmHg 23%
    16:00 +31°C° 0 mm 3 mps 702 mmHg 25%
    17:00 +30°C° 0 mm 2 mps 702 mmHg 27%
    18:00 +28°C° 0 mm 3 mps 702 mmHg 33%
    19:00 +26°C° 0 mm 3 mps 702 mmHg 38%
    20:00 +24°C° 0 mm 3 mps 703 mmHg 44%
    21:00 +22°C° 0 mm 3 mps 703 mmHg 53%
    22:00 +21°C° 0 mm 3 mps 703 mmHg 63%
    23:00 +21°C° 0 mm 4 mps 703 mmHg 72%

    Tomorrow, 18 January, Friday

    Time Temperature Precipitation Wind Pressure Humidity
    00:00 +20°C° 0 mm 3 mps 703 mmHg 78%
    01:00 +19°C° 0 mm 3 mps 702 mmHg 84%
    02:00 +19°C° 0 mm 3 mps 702 mmHg 90%
    03:00 +18°C° 0 mm 2 mps 702 mmHg 92%
    04:00 +18°C° 0 mm 2 mps 702 mmHg 94%
    05:00 +17°C° 0 mm 2 mps 702 mmHg 96%
    06:00 +18°C° 0 mm 2 mps 703 mmHg 90%
    07:00 +19°C° 0 mm 2 mps 703 mmHg 84%
    08:00 +20°C° 0 mm 2 mps 704 mmHg 78%
    09:00 +24°C° 0 mm 2 mps 704 mmHg 64%
    10:00 +26°C° 0 mm 3 mps 704 mmHg 50%
    11:00 +29°C° 0 mm 4 mps 705 mmHg 36%
    12:00 +30°C° 0 mm 4 mps 704 mmHg 32%
    13:00 +32°C° 0 mm 4 mps 703 mmHg 28%
    14:00 +33°C° 0 mm 4 mps 703 mmHg 24%
    15:00 +32°C° 0 mm 4 mps 702 mmHg 26%
    16:00 +30°C° 0 mm 4 mps 702 mmHg 28%
    17:00 +30°C° 0 mm 4 mps 702 mmHg 31%
    18:00 +28°C° 0 mm 4 mps 702 mmHg 37%
    19:00 +26°C° 0 mm 4 mps 703 mmHg 43%
    20:00 +23°C° 0 mm 4 mps 703 mmHg 49%
    21:00 +22°C° 0 mm 4 mps 703 mmHg 56%
    22:00 +21°C° 0 mm 4 mps 703 mmHg 63%
    23:00 +21°C° 0 mm 4 mps 703 mmHg 69%

    Day after tomorrow, 19 January, Saturday

    Time Temperature Precipitation Wind Pressure Humidity
    00:00 +20°C° 0 mm 3 mps 703 mmHg 74%
    01:00 +19°C° 0 mm 3 mps 703 mmHg 80%
    02:00 +18°C° 0 mm 2 mps 702 mmHg 85%
    03:00 +18°C° 0 mm 2 mps 702 mmHg 85%
    04:00 +17°C° 0 mm 2 mps 702 mmHg 85%
    05:00 +17°C° 0 mm 2 mps 702 mmHg 86%
    06:00 +18°C° 0 mm 2 mps 703 mmHg 76%
    07:00 +19°C° 0 mm 2 mps 704 mmHg 66%
    08:00 +20°C° 0 mm 2 mps 704 mmHg 56%
    09:00 +24°C° 0 mm 3 mps 704 mmHg 45%
    10:00 +27°C° 0 mm 4 mps 705 mmHg 33%
    11:00 +29°C° 0 mm 5 mps 705 mmHg 21%
    12:00 +30°C° 0 mm 5 mps 704 mmHg 20%
    13:00 +32°C° 0 mm 5 mps 703 mmHg 20%
    14:00 +33°C° 0 mm 5 mps 703 mmHg 19%
    15:00 +32°C° 0 mm 4 mps 702 mmHg 22%
    16:00 +30°C° 0 mm 4 mps 702 mmHg 26%
    17:00 +29°C° 0 mm 3 mps 702 mmHg 29%
    18:00 +27°C° 0 mm 3 mps 703 mmHg 35%
    19:00 +25°C° 0 mm 3 mps 703 mmHg 41%
    20:00 +22°C° 0 mm 3 mps 703 mmHg 47%
    21:00 +22°C° 0 mm 3 mps 703 mmHg 53%
    22:00 +21°C° 0 mm 3 mps 704 mmHg 59%
    23:00 +20°C° 0 mm 3 mps 704 mmHg 66%

    20 January, Sunday

    Time Temperature Precipitation Wind Pressure Humidity
    00:00 +19°C° 0 mm 3 mps 703 mmHg 70%
    01:00 +18°C° 0 mm 3 mps 703 mmHg 74%
    02:00 +18°C° 0 mm 2 mps 703 mmHg 79%
    03:00 +17°C° 0 mm 2 mps 703 mmHg 79%
    04:00 +16°C° 0 mm 2 mps 703 mmHg 79%
    05:00 +16°C° 0 mm 2 mps 703 mmHg 80%
    06:00 +17°C° 0 mm 2 mps 704 mmHg 73%
    07:00 +18°C° 0 mm 2 mps 704 mmHg 66%
    08:00 +19°C° 0 mm 2 mps 705 mmHg 60%
    09:00 +22°C° 0 mm 3 mps 705 mmHg 47%
    10:00 +26°C° 0 mm 4 mps 705 mmHg 35%
    11:00 +29°C° 0 mm 4 mps 705 mmHg 22%
    12:00 +30°C° 0 mm 4 mps 705 mmHg 21%
    13:00 +30°C° 0 mm 4 mps 704 mmHg 19%
    14:00 +32°C° 0 mm 4 mps 703 mmHg 18%
    15:00 +32°C° 0 mm 4 mps 703 mmHg 21%
    16:00 +30°C° 0 mm 3 mps 703 mmHg 24%
    17:00 +29°C° 0 mm 3 mps 703 mmHg 27%
    18:00 +27°C° 0 mm 3 mps 703 mmHg 32%
    19:00 +25°C° 0 mm 3 mps 704 mmHg 37%
    20:00 +22°C° 0 mm 3 mps 704 mmHg 41%
    21:00 +22°C° 0 mm 3 mps 704 mmHg 46%
    22:00 +21°C° 0 mm 3 mps 704 mmHg 50%
    23:00 +20°C° 0 mm 3 mps 704 mmHg 55%

    21 January, Monday

    Time Temperature Precipitation Wind Pressure Humidity
    00:00 +19°C° 0 mm 3 mps 704 mmHg 58%
    01:00 +19°C° 0 mm 3 mps 703 mmHg 60%
    02:00 +18°C° 0 mm 2 mps 703 mmHg 63%
    03:00 +18°C° 0 mm 2 mps 703 mmHg 64%
    04:00 +17°C° 0 mm 2 mps 703 mmHg 65%
    05:00 +17°C° 0 mm 2 mps 703 mmHg 65%
    06:00 +18°C° 0 mm 2 mps 704 mmHg 60%
    07:00 +19°C° 0 mm 2 mps 704 mmHg 54%
    08:00 +20°C° 0 mm 2 mps 705 mmHg 48%
    09:00 +23°C° 0 mm 2 mps 705 mmHg 38%
    10:00 +26°C° 0 mm 2 mps 705 mmHg 28%
    11:00 +28°C° 0 mm 3 mps 705 mmHg 18%
    12:00 +29°C° 0 mm 3 mps 704 mmHg 17%
    13:00 +30°C° 0 mm 3 mps 703 mmHg 15%
    14:00 +31°C° 0 mm 3 mps 703 mmHg 13%
    15:00 +30°C° 0 mm 2 mps 702 mmHg 16%
    16:00 +30°C° 0 mm 2 mps 702 mmHg 18%
    17:00 +29°C° 0 mm 2 mps 702 mmHg 20%
    18:00 +27°C° 0 mm 2 mps 703 mmHg 24%
    19:00 +25°C° 0 mm 3 mps 703 mmHg 27%
    20:00 +22°C° 0 mm 3 mps 704 mmHg 30%
    21:00 +22°C° 0 mm 3 mps 704 mmHg 38%
    22:00 +21°C° 0 mm 4 mps 704 mmHg 45%
    23:00 +20°C° 0 mm 5 mps 704 mmHg 52%

    22 January, Tuesday

    Time Temperature Precipitation Wind Pressure Humidity
    00:00 +20°C° 0 mm 4 mps 703 mmHg 57%
    01:00 +19°C° 0 mm 3 mps 702 mmHg 62%
    02:00 +18°C° 0 mm 2 mps 702 mmHg 66%
    03:00 +17°C° 0 mm 2 mps 702 mmHg 67%
    04:00 +17°C° 0 mm 2 mps 702 mmHg 68%
    05:00 +16°C° 0 mm 1 mps 702 mmHg 69%
    06:00 +18°C° 0 mm 2 mps 703 mmHg 65%
    07:00 +19°C° 0 mm 2 mps 704 mmHg 60%
    08:00 +20°C° 0 mm 2 mps 704 mmHg 55%
    09:00 +23°C° 0 mm 2 mps 704 mmHg 46%
    10:00 +25°C° 0 mm 2 mps 704 mmHg 37%
    11:00 +28°C° 0 mm 2 mps 704 mmHg 28%
    12:00 +29°C° 0 mm 2 mps 704 mmHg 24%
    13:00 +30°C° 0 mm 2 mps 703 mmHg 21%
    14:00 +31°C° 0 mm 2 mps 702 mmHg 17%
    15:00 +31°C° 0 mm 1 mps 702 mmHg 19%
    16:00 +30°C° 0 mm 1 mps 702 mmHg 20%
    17:00 +30°C° 0 mm 1 mps 702 mmHg 21%
    18:00 +28°C° 0 mm 2 mps 702 mmHg 23%
    19:00 +26°C° 0 mm 2 mps 703 mmHg 25%
    20:00 +24°C° 0 mm 2 mps 703 mmHg 27%
    21:00 +22°C° 0 mm 3 mps 703 mmHg 36%
    22:00 +21°C° 0 mm 3 mps 704 mmHg 44%
    23:00 +20°C° 0 mm 3 mps 704 mmHg 52%
    Show more